Content
SEND FEEDBACK

Daily
Averages
Monthly
Summary
French Polynesia

PAPEETE, FRENCH POLYNESIA


Home > Oceania > French Polynesia
Elevation: 7 feet     Latitude: 17 33S     Longitude: 149 36W

WEATHER
 
SELECT A DAY
Number of Records: 208,679;   Date Range: 6/30/96 - 8/10/14
 
SHARE

PRINT THIS DATA

[ ← Previous Day ]
WEATHER ALMANAC - NOVEMBER 1, 2013
[ Next Day → ]
[ °C ]   °F
Weather ElementAverageHighLow
Temperature78.5 °F86 °F (1:30 pm)73.4 °F (3:00 am)
Dewpoint67.6 °F71.6 °F (11:30 am)64.4 °F (11:00 pm)
Humidity68.6 %83 % (4:30 am)49 % (2:00 pm)
Barometer29.96 in30.02 in (8:00 am)29.89 in (4:00 pm)
Wind Speed5.1 mph20.1 mph (2:00 pm)
Weather ElementAverage
Visibility8.2 mi
Wind DirectionESE (102.1 °)

Weather ElementTotal
Precipitation---
Cooling Degree Days14.7 (Base 65)
Growing Degree Days29.7 (Base 50)
Averaged from 47 records on November 1, 2013
WEATHER CONDITIONS BREAKOUT
WIND DIRECTION BREAKOUT
WEATHER BY HOUR - NOVEMBER 1, 2013
[ °C ]   °F
Local TimeTemperatureDewpointHumidityBarometerVisibilityWind DirectionWind SpeedGust SpeedPrecipitationEventsConditions
12:30 AM75.2 °F68.0 °F78 %29.98 in6.2 miEast (100°)3.5 mphPartly Cloudy
1:00 AM75.2 °F68.0 °F78 %29.95 in6.2 miEast (100°)5.8 mphPartly Cloudy
1:30 AM77.0 °F68.0 °F74 %29.95 in6.2 miESE (110°)2.3 mphScattered Clouds
2:00 AM75.0 °F67.0 °F70 %29.96 in12.0 miSouth (170°)6.7 mphPartly Cloudy
2:00 AM75.2 °F68.0 °F78 %29.95 in6.2 miSouth (170°)3.5 mphScattered Clouds
2:30 AM75.2 °F66.2 °F73 %29.95 in6.2 miEast (100°)2.3 mphScattered Clouds
3:00 AM73.4 °F66.2 °F78 %29.95 in6.2 miSouth (180°)2.3 mphPartly Cloudy
3:30 AM73.4 °F66.2 °F78 %29.95 in6.2 miSouth (180°)3.5 mph
4:00 AM73.4 °F66.2 °F78 %29.95 in6.2 miEast (100°)3.5 mphMostly Cloudy
4:30 AM73.4 °F68.0 °F83 %29.95 in6.2 miCalmOvercast
5:00 AM73.4 °F66.2 °F78 %29.95 in6.2 miSouth (170°)2.3 mphMostly Cloudy
5:00 AM74.0 °F66.0 °F70 %29.96 in37.0 miSouth (170°)4.5 mphClear
5:30 AM73.4 °F66.2 °F78 %29.95 in6.2 miEast (80°)2.3 mphPartly Cloudy
6:00 AM73.4 °F68.0 °F83 %29.98 in6.2 miSouth (180°)3.5 mphMostly Cloudy
6:30 AM75.2 °F68.0 °F78 %29.98 in6.2 miEast (100°)2.3 mphMostly Cloudy
7:00 AM77.0 °F69.8 °F78 %30.01 in6.2 miVariable2.3 mphMostly Cloudy
7:30 AM78.8 °F69.8 °F74 %30.01 in6.2 miVariable2.3 mphMostly Cloudy
8:00 AM78.8 °F69.8 °F74 %30.01 in6.2 miNNE (20°)3.5 mphMostly Cloudy
8:00 AM79.0 °F69.0 °F64 %30.02 in16.0 miNNE (20°)3.5 mphPartly Cloudy
8:30 AM82.4 °F69.8 °F66 %30.01 in6.2 miNorth (10°)5.8 mphScattered Clouds
9:00 AM82.4 °F68.0 °F62 %30.01 in6.2 miNorth (360°)5.8 mphMostly Cloudy
9:30 AM82.4 °F69.8 °F66 %30.01 in6.2 miNNW (340°)4.6 mphScattered Clouds
10:00 AM82.4 °F69.8 °F66 %30.01 in6.2 miNW (310°)3.5 mphScattered Clouds
10:30 AM84.2 °F68.0 °F58 %29.98 in6.2 miNW (320°)4.6 mphScattered Clouds
11:00 AM84.0 °F69.0 °F52 %29.98 in19.0 miNNE (20°)8.1 mphScattered Clouds
11:00 AM84.2 °F69.8 °F62 %29.98 in6.2 miNNE (20°)8.1 mphPartly Cloudy
11:30 AM84.2 °F71.6 °F66 %29.95 in6.2 miNE (40°)10.4 mphPartly Cloudy
12:00 PM84.2 °F69.8 °F62 %29.95 in6.2 miNE (50°)12.7 mphPartly Cloudy
12:30 PM84.2 °F68.0 °F58 %29.92 in6.2 miENE (60°)10.4 mphPartly Cloudy
1:00 PM84.2 °F69.8 °F62 %29.92 in6.2 miNE (40°)10.4 mphPartly Cloudy
1:30 PM86.0 °F69.8 °F58 %29.92 in6.2 miVariable3.5 mphPartly Cloudy
2:00 PM84.0 °F68.0 °F49 %29.94 in19.0 miSW (220°)20.1 mphScattered Clouds
2:00 PM84.2 °F68.0 °F58 %29.92 in6.2 miSW (220°)10.4 mphPartly Cloudy
3:00 PM84.2 °F66.2 °F55 %29.92 in6.2 miVariable5.8 mphScattered Clouds
3:30 PM84.2 °F66.2 °F55 %29.92 in6.2 miSouth (190°)6.9 mphScattered Clouds
4:00 PM82.4 °F68.0 °F62 %29.89 in6.2 miNE (40°)11.5 mphScattered Clouds
4:30 PM82.4 °F66.2 °F58 %29.92 in6.2 miNNE (30°)10.4 mphScattered Clouds
8:00 PM76.0 °F66.0 °F64 %29.96 in19.0 miEast (100°)1.2 mphScattered Clouds
8:00 PM77.0 °F66.2 °F69 %29.95 in6.2 miCalmPartly Cloudy
8:30 PM77.0 °F66.2 °F69 %29.95 in6.2 miVariable2.3 mphScattered Clouds
9:00 PM75.2 °F66.2 °F73 %29.95 in6.2 miENE (60°)4.6 mphPartly Cloudy
9:30 PM75.2 °F66.2 °F73 %29.95 in6.2 miEast (100°)3.5 mphPartly Cloudy
10:00 PM75.2 °F66.2 °F73 %29.95 in6.2 miVariable2.3 mphPartly Cloudy
10:30 PM75.2 °F66.2 °F73 %29.95 in6.2 miVariable2.3 mphPartly Cloudy
11:00 PM74.0 °F65.0 °F67 %29.96 in16.0 miEast (80°)3.5 mphScattered Clouds
11:00 PM75.2 °F64.4 °F69 %29.95 in6.2 miEast (80°)3.5 mphPartly Cloudy
11:30 PM75.2 °F66.2 °F73 %29.95 in6.2 miSSE (160°)2.3 mphPartly Cloudy
Hourly data recorded from NTAA, located miles away from Papeete, French Polynesia







STORIES FROM OUR PARTNERS